This is the latest recevied weather packets stored in our database for station/object KK7PZE-13. If no packets are shown the sender has not sent any weather packets the latest 1 day(s).
| Time | Temp. | Humidity | Pressure | Rain* | Wind** | Luminosity | Snow |
|---|---|---|---|---|---|---|---|
| 1777969129 | 17.78° C | 42% | 1011.7 hPa | 0 mm | 2.24 m/s, 173° | - | - |
| 1777968529 | 18.33° C | 39% | 1012.1 hPa | 0 mm | 2.68 m/s, 166° | - | - |
| 1777967929 | 18.33° C | 38% | 1011.8 hPa | 0 mm | 3.58 m/s, 154° | - | - |
| 1777967329 | 18.33° C | 37% | 1011.7 hPa | 0 mm | 3.13 m/s, 170° | - | - |
| 1777966729 | 18.89° C | 34% | 1011.8 hPa | 0 mm | 3.58 m/s, 155° | - | - |
| 1777966129 | 18.89° C | 33% | 1011.8 hPa | 0 mm | 2.68 m/s, 145° | - | - |
| 1777965529 | 18.89° C | 32% | 1011.9 hPa | 0 mm | 1.34 m/s, 145° | - | - |
| 1777964929 | 18.89° C | 33% | 1012 hPa | 0 mm | 0.89 m/s, 146° | - | - |
| 1777964329 | 18.89° C | 33% | 1011.7 hPa | 0 mm | 0.89 m/s, 157° | - | - |
| 1777963729 | 18.89° C | 44% | 1011.6 hPa | 0 mm | 0.89 m/s, 191° | - | - |
| 1777963302 | 18.89° C | 44% | 1011.6 hPa | 0 mm | 0.89 m/s, 191° | - | - |
| 1777963129 | 18.89° C | 44% | 1011.6 hPa | 0 mm | 0.89 m/s, 191° | - | - |
| 1777962530 | 18.89° C | 45% | 1011.5 hPa | 0 mm | 0.45 m/s, 163° | - | - |
| 1777962140 | 18.89° C | 45% | 1011.2 hPa | 0 mm | 0.89 m/s, 163° | - | - |
| 1777961929 | 18.89° C | 45% | 1011.2 hPa | 0 mm | 0.89 m/s, 163° | - | - |
| 1777961329 | 18.89° C | 45% | 1011.3 hPa | 0 mm | 0.89 m/s, 222° | - | - |
| 1777960733 | 18.89° C | 45% | 1011.5 hPa | 0 mm | 0.89 m/s, 205° | - | - |
| 1777960130 | 19.44° C | 44% | 1011.6 hPa | 0 mm | 1.34 m/s, 201° | - | - |
| 1777959529 | 19.44° C | 44% | 1011.6 hPa | 0 mm | 1.79 m/s, 224° | - | - |
| 1777958929 | 19.44° C | 44% | 1011.7 hPa | 0 mm | 1.34 m/s, 233° | - | - |
* Rain latest hour (hover to see other rain measurements)
** Current wind speed in m/s (hover to see current wind gust speed)